This demonstration page uses our WeatherBlox Daily Observations layout. Learn more.

Left ArrowRight Arrow

Hourly Observations for September 25, 2022

Temp ( °F °C ) Dew Point ( °F °C ) Humidity (%) Winds ( mph kmh ) Pressure ( in mb ) Visibility ( mi km ) Precip ( " mm )
12:15 am 00:15 Clear 55 12.9 45 7.4 69 69 N 7 11 30.10 1019 10 16 0.00 0.00
12:35 am 00:35 Clear 55 12.7 45 7.3 70 70 NNW 5 7 30.10 1019 10 16 0.00 0.00
12:55 am 00:55 Clear 53 11.9 45 7.3 73 73 NNW 6 9 30.11 1020 10 16 0.00 0.00
1:15 am 01:15 Clear 53 11.4 45 7.3 76 76 N 8 13 30.11 1020 10 16 0.00 0.00
1:35 am 01:35 Clear 55 12.6 44 6.9 68 68 NNW 12 19 30.11 1020 10 16 0.00 0.00
1:55 am 01:55 Clear 54 12.2 45 7 70 70 NNW 7 11 30.11 1020 10 16 0.00 0.00
2:15 am 02:15 Clear 55 12.5 44 6.7 68 68 N 12 19 30.12 1020 10 16 0.00 0.00
2:35 am 02:35 Clear 54 12.1 44 6.7 70 70 N 12 19 30.13 1020 10 16 0.00 0.00
2:55 am 02:55 Clear 53 11.5 44 6.7 72 72 N 10 17 30.15 1021 10 16 0.00 0.00
3:15 am 03:15 Clear 54 12.4 43 6.1 65 65 NNW 9 15 30.14 1021 10 16 0.00 0.00
3:35 am 03:35 Clear 53 11.9 43 6.1 68 68 NW 6 9 30.16 1021 10 16 0.00 0.00
3:55 am 03:55 Clear 52 11 43 6.2 72 72 NNW 7 11 30.17 1022 10 16 0.00 0.00
4:15 am 04:15 Clear 51 10.8 43 6.1 73 73 NW 5 7 30.18 1022 10 16 0.00 0.00
4:35 am 04:35 Clear 52 10.9 43 6 72 72 NW 8 13 30.18 1022 10 16 0.00 0.00
4:55 am 04:55 Clear 51 10.8 43 6 72 72 NW 8 13 30.18 1022 10 16 0.00 0.00
5:15 am 05:15 Clear 51 10.3 43 6 75 75 NNW 8 13 30.19 1022 10 16 0.00 0.00
5:35 am 05:35 Clear 50 9.9 43 6 77 77 NW 6 9 30.20 1023 10 16 0.00 0.00
5:55 am 05:55 Clear 49 9.4 43 6 79 79 NW 7 11 30.21 1023 10 16 0.00 0.00
6:15 am 06:15 Clear 49 9.6 43 6 78 78 NW 10 17 30.22 1023 10 16 0.00 0.00
6:35 am 06:35 Clear 49 9.5 43 6 79 79 NW 8 13 30.23 1024 10 16 0.00 0.00
6:55 am 06:55 Clear 49 9.2 42 5.8 79 79 NNW 8 13 30.23 1024 10 16 0.00 0.00
7:15 am 07:15 Clear 49 9.5 42 5.8 78 78 NW 9 15 30.24 1024 10 16 0.00 0.00
7:35 am 07:35 Sunny 48 9 42 5.8 80 80 NW 6 9 30.24 1024 10 16 0.00 0.00
7:55 am 07:55 Sunny 49 9.4 42 5.8 78 78 NNW 8 13 30.25 1024 10 16 0.00 0.00
8:15 am 08:15 Sunny 50 10.1 43 6 76 76 NW 8 13 30.25 1024 10 16 0.00 0.00
8:35 am 08:35 Sunny 53 11.5 43 6.1 69 69 NW 7 11 30.24 1024 10 16 0.00 0.00
8:55 am 08:55 Sunny 55 12.7 44 6.5 66 66 NW 7 11 30.24 1024 10 16 0.00 0.00
9:15 am 09:15 Sunny 57 13.8 44 6.7 62 62 NW 9 15 30.23 1024 10 16 0.00 0.00
9:35 am 09:35 Sunny 59 14.8 44 6.8 59 59 NW 8 13 30.23 1024 10 16 0.00 0.00
9:55 am 09:55 Sunny 60 15.5 44 6.6 55 55 NW 9 15 30.22 1023 10 16 0.00 0.00
10:15 am 10:15 Sunny 62 16.7 44 6.9 52 52 NW 7 11 30.21 1023 10 16 0.00 0.00
10:35 am 10:35 Sunny 64 17.6 43 6.3 47 47 NW 8 13 30.22 1023 10 16 0.00 0.00
10:55 am 10:55 Sunny 65 18.6 44 6.6 45 45 NNW 9 15 30.21 1023 10 16 0.00 0.00
11:15 am 11:15 Sunny 67 19.5 43 6 41 41 NW 9 15 30.20 1023 10 16 0.00 0.00
11:35 am 11:35 Sunny 69 20.6 42 5.7 38 38 NW 9 15 30.19 1022 10 16 0.00 0.00
11:55 am 11:55 Sunny 70 20.9 42 5.7 37 37 NW 10 17 30.18 1022 10 16 0.00 0.00
12:15 pm 12:15 Sunny 70 21 42 5.7 37 37 NW 6 9 30.18 1022 10 16 0.00 0.00
12:35 pm 12:35 Sunny 71 21.4 42 5.6 36 36 NW 9 15 30.16 1021 10 16 0.00 0.00
12:55 pm 12:55 Sunny 71 21.7 40 4.6 33 33 N 8 13 30.15 1021 10 16 0.00 0.00
1:15 pm 13:15 Partly Cloudy 72 22.1 42 5.3 33 33 NW 13 20 30.15 1021 10 16 0.00 0.00
1:35 pm 13:35 Partly Cloudy 73 22.6 42 5.6 33 33 NNW 13 20 30.13 1020 10 16 0.00 0.00
1:55 pm 13:55 Partly Cloudy 72 22.1 42 5.4 34 34 NW 15 24 30.14 1021 10 16 0.00 0.00
2:15 pm 14:15 Mostly Cloudy 72 22.3 42 5.4 33 33 NW 10 17 30.13 1020 10 16 0.00 0.00
2:35 pm 14:35 Mostly Cloudy 72 22.3 42 5.4 33 33 NNW 10 17 30.12 1020 10 16 0.00 0.00
2:55 pm 14:55 Mostly Cloudy 73 22.9 41 5.1 31 31 NNW 17 28 30.10 1019 10 16 0.00 0.00
3:15 pm 15:15 Mostly Cloudy 74 23.5 40 4.2 28 28 NW 12 19 30.09 1019 10 16 0.00 0.00
3:35 pm 15:35 Mostly Cloudy 74 23.4 39 3.9 28 28 NW 10 17 30.09 1019 10 16 0.00 0.00
3:55 pm 15:55 Partly Cloudy 73 22.5 39 4 30 30 NW 12 19 30.09 1019 10 16 0.00 0.00
4:15 pm 16:15 Sunny 74 23.5 41 4.9 30 30 NW 13 20 30.08 1019 10 16 0.00 0.00
4:35 pm 16:35 Partly Cloudy 75 24.1 40 4.7 28 28 NW 7 11 30.05 1018 10 16 0.00 0.00
4:55 pm 16:55 Partly Cloudy 76 24.2 40 4.3 28 28 WNW 16 26 30.05 1018 10 16 0.00 0.00
5:15 pm 17:15 Partly Cloudy 75 24.1 40 4.5 28 28 NW 13 20 30.04 1017 10 16 0.00 0.00
5:35 pm 17:35 Sunny 75 23.8 39 4.1 28 28 NNW 16 26 30.05 1017 10 16 0.00 0.00
5:55 pm 17:55 Sunny 74 23.6 40 4.4 29 29 NW 12 19 30.05 1017 10 16 0.00 0.00
6:15 pm 18:15 Sunny 74 23.5 39 3.7 28 28 NW 8 13 30.05 1018 10 16 0.00 0.00
6:35 pm 18:35 Sunny 73 22.9 39 3.9 29 29 NW 15 24 30.04 1017 10 16 0.00 0.00
6:55 pm 18:55 Sunny 71 21.8 41 5.1 34 34 NW 10 17 30.05 1018 10 16 0.00 0.00
7:15 pm 19:15 Sunny 68 19.9 42 5.6 39 39 NW 6 9 30.07 1018 10 16 0.00 0.00
7:35 pm 19:35 Clear 65 18.1 43 6.3 46 46 NNW 3 6 30.09 1019 10 16 0.00 0.00
7:55 pm 19:55 Clear 64 17.6 44 6.4 48 48 NW 3 6 30.10 1019 7 11 0.00 0.00
8:15 pm 20:15 Clear 60 15.3 45 7.4 59 59 Calm 30.12 1020 7 11 0.00 0.00
8:35 pm 20:35 Clear 60 15.8 45 7.2 57 57 Calm 30.11 1020 10 16 0.00 0.00
8:55 pm 20:55 Clear 58 14.6 46 7.6 63 63 NW 3 6 30.13 1020 10 16 0.00 0.00
9:15 pm 21:15 Clear 57 14 46 7.7 66 66 NW 3 6 30.14 1021 10 16 0.00 0.00
9:35 pm 21:35 Clear 56 13.5 46 7.5 67 67 Calm 30.15 1021 10 16 0.00 0.00
9:55 pm 21:55 Clear 56 13.2 46 7.5 68 68 Calm 30.15 1021 10 16 0.00 0.00
10:15 pm 22:15 Clear 55 13 45 7.2 68 68 NW 3 6 30.17 1022 10 16 0.00 0.00
10:35 pm 22:35 Clear 53 11.7 45 7.2 74 74 NNW 3 6 30.18 1022 10 16 0.00 0.00
10:55 pm 22:55 Clear 53 11.4 45 7.1 75 75 NW 3 6 30.19 1022 10 16 0.00 0.00
11:15 pm 23:15 Clear 53 11.7 44 6.5 70 70 NW 3 6 30.19 1022 10 16 0.00 0.00
11:35 pm 23:35 Clear 52 11 44 6.5 74 74 NW 3 6 30.19 1023 10 16 0.00 0.00
11:55 pm 23:55 Clear 52 11 43 6.2 72 72 NW 5 7 30.20 1023 10 16 0.00 0.00

Powered by AerisWeather